Вернуться в каталог

HULIANWANG DIGUI-54

АктивенСвязьLEO
NORAD 65111·PAYLOAD·🇨🇳 China

Запущен Aug 4, 2025 с Wenchang Space Launch Site

Loading…

Ближайшие Пролёты (ближайшие 24 часа)

TLE

СвежийSource: Space-Track

Эпоха: Sep 14, 2026, 20:48 UTC

1 65111U 25168F   26257.86705614 -.00000083  00000-0  88784-4 0  9996
2 65111  50.0011   3.6699 0009986   4.6506 355.4457 13.29330541 54620

Отслеживайте HULIANWANG DIGUI-54 в реальном времени с AllMySat

Download on the App Store